HB9TQJ-6 Weather Reports


Display with metric or nautical units.
time (UTC)temp
F
wind
direction
speed
MPH
gust
MPH
rain 1hr
in
rain 24hr
in
rain mn
in
humidity
%
barometer
mb
20260507154304 62 45 1.0 2.0 0.00 0.10 0.10 63 1013.3
20260507153303 62 0 1.0 4.0 0.00 0.10 0.10 62 1013.3
20260507152300 62 39 1.0 2.0 0.00 0.10 0.10 62 1013.2
20260507151258 64 45 1.0 2.0 0.00 0.10 0.10 59 1013.2
20260507150257 64 45 1.0 2.0 0.00 0.10 0.10 59 1013.2
20260507145255 64 52 1.0 2.0 0.00 0.10 0.10 58 1013.3
20260507144315 64 68 1.0 2.0 0.00 0.10 0.10 59 1013.2
20260507143317 64 90 1.0 2.0 0.00 0.10 0.10 58 1013.3
20260507142249 64 33 1.0 4.0 0.00 0.10 0.10 57 1013.3
20260507141247 63 60 1.0 2.0 0.00 0.10 0.10 60 1013.3
20260507140246 63 90 1.0 2.0 0.00 0.10 0.10 60 1013.3
20260507135306 63 38 1.0 2.0 0.00 0.10 0.10 60 1013.4
20260507134241 63 54 1.0 3.0 0.00 0.10 0.10 64 1013.5
20260507133239 63 54 1.0 3.0 0.00 0.10 0.10 64 1013.5
20260507132238 62 90 1.0 2.0 0.00 0.10 0.10 64 1013.6
20260507131258 62 45 1.0 2.0 0.00 0.12 0.10 63 1013.6
20260507130234 62 57 1.0 2.0 0.00 0.15 0.10 64 1013.7
20260507125232 62 57 1.0 2.0 0.00 0.16 0.10 64 1013.7
20260507124229 62 49 1.0 2.0 0.00 0.16 0.10 67 1013.8
20260507123226 62 59 1.0 2.0 0.00 0.17 0.10 67 1013.9
20260507122245 62 338 1.0 2.0 0.00 0.19 0.10 67 1013.8
20260507121223 62 90 1.0 2.0 0.00 0.20 0.10 68 1013.9
20260507120222 62 45 1.0 2.0 0.00 0.21 0.10 67 1014.0
20260507115220 62 90 1.0 1.0 0.00 0.23 0.10 69 1014.0
20260507114217 61 90 1.0 2.0 0.00 0.24 0.10 70 1014.1
20260507113215 61 90 1.0 2.0 0.00 0.26 0.10 70 1014.1
20260507112233 60 351 1.0 2.0 0.00 0.27 0.10 68 1014.0
20260507111231 61 57 1.0 2.0 0.00 0.28 0.10 70 1014.0
20260507110209 59 59 1.0 2.0 0.00 0.29 0.10 73 1014.2
20260507105208 59 59 1.0 2.0 0.00 0.30 0.10 73 1014.2
20260507104205 59 55 1.0 2.0 0.00 0.31 0.10 72 1014.1
20260507103203 59 90 1.0 2.0 0.00 0.31 0.10 73 1014.2
20260507102201 59 53 1.0 2.0 0.00 0.32 0.10 72 1014.2
20260507101227 59 26 1.0 3.0 0.00 0.33 0.10 72 1014.2
20260507100156 58 32 1.0 2.0 0.00 0.33 0.10 73 1014.3
20260507095156 58 34 1.0 2.0 0.00 0.33 0.10 71 1014.3
20260507094154 60 28 1.0 2.0 0.00 0.33 0.10 71 1014.3
20260507093152 60 90 1.0 2.0 0.00 0.33 0.10 73 1014.2
20260507092149 60 45 1.0 2.0 0.00 0.33 0.10 73 1014.1
20260507091147 60 45 1.0 2.0 0.00 0.33 0.10 73 1014.1
20260507090146 59 39 1.0 2.0 0.00 0.33 0.10 75 1014.1
20260507085144 59 29 1.0 2.0 0.00 0.33 0.10 76 1014.0
20260507084142 57 45 1.0 2.0 0.00 0.33 0.10 79 1013.9
20260507083159 57 45 1.0 2.0 0.00 0.33 0.10 79 1013.9
20260507082139 56 35 1.0 2.0 0.00 0.33 0.10 79 1013.9
20260507081136 56 45 1.0 1.0 0.00 0.33 0.10 80 1013.9
20260507080132 56 49 1.0 1.0 0.00 0.33 0.10 80 1013.9
20260507075130 55 25 1.0 2.0 0.00 0.33 0.10 81 1013.9
20260507074128 55 45 1.0 2.0 0.00 0.33 0.10 81 1013.8
20260507073126 54 34 1.0 2.0 0.00 0.33 0.10 82 1013.8
20260507072125 54 35 1.0 1.0 0.00 0.33 0.10 84 1013.7
20260507071143 53 56 1.0 1.0 0.00 0.33 0.10 84 1013.6
20260507070121 53 90 1.0 1.0 0.00 0.33 0.10 84 1013.5
20260507065119 53 52 1.0 1.0 0.00 0.33 0.10 85 1013.5
20260507064137 53 90 1.0 2.0 0.00 0.33 0.10 85 1013.5
20260507063115 52 49 1.0 1.0 0.00 0.33 0.10 86 1013.5
20260507062113 52 55 1.0 2.0 0.00 0.33 0.10 86 1013.4
20260507061112 52 49 1.0 2.0 0.00 0.33 0.10 86 1013.3
20260507060109 52 51 1.0 1.0 0.00 0.33 0.10 86 1013.3
20260507055107 52 49 1.0 2.0 0.01 0.33 0.10 86 1013.2
20260507054125 52 55 1.0 1.0 0.01 0.33 0.10 86 1013.0
20260507053103 52 45 1.0 1.0 0.01 0.33 0.10 86 1013.0
20260507052121 51 59 1.0 1.0 0.01 0.33 0.10 85 1012.9
20260507051059 51 59 1.0 2.0 0.01 0.33 0.10 86 1012.7
20260507050057 51 90 1.0 1.0 0.01 0.33 0.10 86 1012.6
20260507045054 51 56 1.0 1.0 0.00 0.33 0.09 86 1012.5
20260507044052 51 60 1.0 1.0 0.00 0.33 0.09 86 1012.4
20260507043051 51 90 1.0 1.0 0.00 0.33 0.09 86 1012.2
20260507042109 51 52 1.0 1.0 0.00 0.33 0.09 86 1012.2
20260507041047 51 90 1.0 2.0 0.00 0.33 0.09 86 1012.2
20260507040046 51 90 1.0 2.0 0.00 0.33 0.09 86 1012.1
20260507035043 52 45 1.0 1.0 0.00 0.33 0.09 86 1012.1
20260507034041 51 49 1.0 1.0 0.00 0.33 0.09 86 1012.0
20260507033039 51 49 1.0 1.0 0.01 0.33 0.09 86 1012.0
20260507032037 51 56 1.0 1.0 0.02 0.34 0.09 86 1012.0
20260507031036 51 90 1.0 2.0 0.03 0.34 0.09 85 1012.0
20260507030053 51 90 1.0 2.0 0.04 0.34 0.09 85 1012.0
20260507025032 52 57 1.0 1.0 0.04 0.34 0.09 85 1011.9
20260507024030 52 53 1.0 1.0 0.06 0.33 0.09 85 1011.9
20260507023034 52 45 1.0 2.0 0.06 0.33 0.08 85 1011.8
20260507022029 52 45 1.0 2.0 0.06 0.32 0.07 85 1011.8
20260507021024 52 59 1.0 1.0 0.05 0.31 0.06 84 1011.7
20260507020043 52 59 1.0 2.0 0.05 0.30 0.06 84 1011.6
20260507015039 52 90 1.0 1.0 0.04 0.29 0.05 84 1011.5
20260507014017 52 90 1.0 1.0 0.03 0.28 0.03 84 1011.5
20260507013036 52 90 1.0 1.0 0.02 0.27 0.02 84 1011.5
20260507012013 52 49 1.0 1.0 0.02 0.26 0.02 84 1011.5
20260507011011 52 50 1.0 1.0 0.01 0.26 0.01 84 1011.3
20260507010029 52 50 1.0 1.0 0.01 0.25 0.01 84 1011.3
20260507005007 52 49 1.0 1.0 0.00 0.25 0.00 84 1011.2
20260507004005 52 45 1.0 1.0 0.00 0.25 0.00 84 1011.2
20260507003004 52 90 1.0 2.0 0.00 0.25 0.00 84 1011.1
20260507001500 52 39 1.0 1.0 0.00 0.25 0.00 84 1011.1
20260507000458 52 45 1.0 2.0 0.00 0.25 0.00 84 1011.0
20260506235456 52 55 1.0 1.0 0.00 0.25 0.00 84 1011.0
20260506234454 52 59 1.0 1.0 0.00 0.25 0.00 84 1011.0
20260506233512 52 54 1.0 1.0 0.00 0.25 0.00 83 1011.0
20260506232450 52 49 1.0 1.0 0.00 0.25 0.00 83 1011.1
20260506231508 52 90 1.0 2.0 0.00 0.25 0.00 83 1011.1
20260506230447 52 56 1.0 1.0 0.00 0.25 0.00 83 1011.1
20260506225444 52 53 1.0 1.0 0.00 0.25 0.00 83 1011.0
20260506224443 53 90 1.0 1.0 0.00 0.25 0.00 82 1011.0
20260506223440 53 90 1.0 1.0 0.00 0.25 0.00 82 1010.9
20260506222458 53 90 1.0 2.0 0.00 0.25 0.00 82 1010.9
20260506221436 53 90 1.0 2.0 0.00 0.25 0.00 81 1010.9
20260506220435 53 90 1.0 2.0 0.00 0.25 0.00 81 1011.0
20260506215431 53 90 1.0 2.0 0.00 0.25 0.25 82 1011.0
20260506214430 53 90 1.0 2.0 0.00 0.25 0.25 83 1011.0
20260506213447 53 90 1.0 2.0 0.00 0.25 0.25 85 1010.9
20260506212425 53 90 1.0 2.0 0.00 0.25 0.25 85 1010.8
20260506211422 53 90 1.0 2.0 0.00 0.25 0.25 85 1010.8
20260506210441 53 105 1.0 2.0 0.00 0.25 0.25 85 1010.7
20260506205419 53 90 1.0 2.0 0.00 0.25 0.25 85 1010.5
20260506204417 53 90 1.0 2.0 0.00 0.25 0.25 85 1010.5
20260506203415 53 90 1.0 3.0 0.00 0.25 0.25 85 1010.6
20260506202413 53 90 1.0 2.0 0.00 0.25 0.25 85 1010.3
20260506201411 53 90 1.0 2.0 0.00 0.25 0.25 85 1010.0
20260506200409 53 90 1.0 2.0 0.00 0.25 0.25 85 1010.0
20260506195407 53 90 1.0 2.0 0.00 0.25 0.25 85 1010.0
20260506194425 53 90 1.0 2.0 0.00 0.25 0.25 84 1009.9
20260506193423 53 90 1.0 2.0 0.00 0.25 0.25 84 1009.8
20260506192401 54 90 1.0 2.0 0.00 0.25 0.25 84 1009.7
20260506191359 54 90 1.0 2.0 0.00 0.25 0.25 84 1009.6
20260506190358 54 90 1.0 2.0 0.00 0.25 0.25 84 1009.5
20260506185357 54 90 1.0 2.0 0.00 0.25 0.25 84 1009.5
20260506184353 55 90 1.0 2.0 0.00 0.25 0.25 83 1009.2
20260506183352 55 90 1.0 2.0 0.00 0.25 0.25 83 1009.2
20260506182350 55 90 1.0 2.0 0.00 0.25 0.25 82 1009.2
20260506181347 55 90 1.0 2.0 0.00 0.25 0.25 82 1009.2
20260506180345 56 116 1.0 2.0 0.00 0.25 0.25 81 1009.0
20260506175343 56 90 1.0 2.0 0.00 0.25 0.25 82 1009.0
20260506174354 56 90 1.0 2.0 0.00 0.25 0.25 82 1009.0
20260506173340 56 90 1.0 2.0 0.00 0.25 0.25 81 1008.7
20260506172356 56 90 1.0 2.0 0.00 0.25 0.25 80 1008.6
20260506171335 56 90 1.0 2.0 0.00 0.25 0.25 81 1008.4
20260506170353 57 90 1.0 2.0 0.00 0.25 0.25 82 1008.5
20260506165331 57 90 1.0 1.0 0.00 0.25 0.25 81 1008.5
20260506164349 57 90 1.0 2.0 0.00 0.25 0.25 81 1008.4
20260506163356 57 90 1.0 2.0 0.00 0.25 0.25 80 1008.3
20260506162345 57 90 1.0 2.0 0.00 0.25 0.25 80 1008.3
20260506161322 57 90 1.0 2.0 0.00 0.25 0.25 80 1008.3
20260506160321 57 90 1.0 2.0 0.00 0.25 0.25 79 1008.4
20260506155319 57 90 1.0 2.0 0.00 0.25 0.25 80 1008.3